Weather in Pobeda

Russia / Khabarovsk Krai     49°03′40″N   134°19′36″E
temp.,
°C
wind,
m/s
gust,
m/s
humid.,
%
clouds,
%
prec.,
mm/h
press.,
hPa
HPBL,
m
26 july, mon
mon2601:00+23sw1178100 0.1 100512
04:00+22wnw1184100 0.5 100511
07:00+22ene228998 0.1 100535
10:00+25e248099 0.1 1005356
13:00+29s356399 0.0 10041051
16:00+30wsw366122 0.0 10031198
19:00+29nw2374100 0.0 100271
22:00+25ene1178100 0.0 100311
27 july, tue
tue2701:00+24n2278100 0.0 100315
04:00+23n1186100 0.0 100311
07:00+23nne1287100 0.1 100456
10:00+27n0072100 0.1 1004361
13:00+30wsw23629 0.0 1003807
16:00+32sw3357100 0.0 10031037
19:00+30sw1274100 0.0 1001162
22:00+26nne2280100 0.0 100231
28 july, wed
wed2801:00+22ne3793100 0.0 1003181
04:00+21ne37924 0.0 1003152
07:00+22ne25880 0.0 1003154
10:00+27e12695 0.0 1003461
13:00+31ssw22595 0.0 1001814
16:00+33sw23545 0.0 9991099
19:00+29nne11695 0.0 99814
22:00+26n11805 0.0 99911
29 july, thu
thu2901:00+24wnw238681 0.9 99839
04:00+23nnw229351 5.1 99818
07:00+23wnw1193100 2.8 99838
10:00+26ssw2284100 4.1 998417
13:00+29wsw3372100 0.3 997737
16:00+30sw3465100 0.5 9961041
19:00+28wsw2477100 0.0 99571
22:00+24wsw227336 0.0 99620
30 july, fri
fri3001:00+22wnw118798 0.0 99511
04:00+22w228395 0.0 99542
07:00+22wsw248610 0.0 996127
10:00+27wsw45660 0.0 996654
13:00+30wsw45580 0.0 9961268
16:00+31sw46510 0.0 9951440
19:00+28sw36670 0.0 995184
22:00+24wsw11735 0.0 99611